OBJECT C (43829 NORAD) Tracking and Keplerian Element Data

This shows tracking and keplerian element data for the satellite.

Feedback or suggestion? Click here.




ElementValue
Catalog43829
NameOBJECT C
Epoch Orbit79
Epoch Day344.66455803
Epoch Year2018
RAAN217.6138
Inclination51.6167
Eccentricity0.0028055
Argument of Perigee71.0265
Mean Anonmoly291.1277
Mean Motion16.31601057
Decay Rate0.09274368
L11 43829U 18101C 18344.66455803 .09274368 12300-4 14689-2 0 9993
L22 43829 51.6167 217.6138 0028055 71.0265 291.1277 16.31601057 798

Live tracking and technical data element details for OBJECT C (NORAD 43829). OBJECT C can be tracked NOW for your location showing map with azimuth and elevation plus other details from your city location.

Track the satellite on the map from your city or location and see movement details for azimuth, elevation, latitude, longitude, range, height, and movement on the map or in text.







IsCatalogInMostPopularTable: catalog: 43829, numindb: 1
Update: records affected: 1



GetName: 43829 OBJECT C

Hit Count: updated at: Tue, 11 Dec 2018 03:02:47 GMT